Tracking 27380 objects as of 6-Jun-2023
HD Live streaming from Space Station
objects crossing your sky now

CZ-4 DEB

Track CZ-4 DEB now!
10-day predictions


NORAD ID: 20847
Int'l Code: 1990-081K
Perigee: 485.3 km
Apogee: 501.1 km
Inclination: 98.5 °
Period: 94.3 minutes
Semi major axis: 6864 km
RCS: 1.3457 m2 (large)
Launch date: September 3, 1990
Source: People's Republic of China (PRC)
Launch site: Taiyaun Space Center, China (TSC)

Note: This is SATELLITE DEBRIS
Your satellite tracking list
Your tracking list is empty




NASA's NSSDC Master Catalog

Two Line Element Set (TLE):
1 20847U 90081K   23156.47349388  .00114668  00000-0  43166-2 0  9990
2 20847  98.5236 235.0011 0011538 225.6268 134.4023 15.26565381729486
Source of the keplerian elements: AFSPC